Location: Unspecified
(17.6330°N, 0.0000°E)
Time: 09:07:27
(UTC+00:00)

S-56A Canister/Altair - Pass Details

Date: 29 June 2019
Orbit: 633 x 2499 km, 38.9° (Epoch: 17 August)

Event Time Altitude Azimuth Distance (km) Brightness Sun altitude
Rises 18:01:21 0° 314° (NW) 4,503 13.0 7.3°
Reaches altitude 10° 18:05:49 10° 330° (NNW) 3,141 11.6 6.3°
Maximum altitude 18:10:52 19° 13° (NNE) 2,127 10.0 5.2°
Drops below altitude 10° 18:14:52 10° 59° (ENE) 2,416 9.8 4.4°
Sets 18:17:44 0° 78° (ENE) 3,160 10.2 3.7°
